Weather History for Longview, TX

Change the Weather History Date:

Saturday, August 10, 2013

  Actual Average Record
Temperature  
Mean Temperature 90 °F 83 °F  
Max Temperature 104 °F 95 °F 113 °F (1936)
Min Temperature 75 °F 72 °F 60 °F (1931)
Degree Days  
Heating Degree Days 0 0  
Month to date heating degree days 0 0  
Since 1 June heating degree days 0 0  
Since 1 July heating degree days 0 0  
Cooling Degree Days 25 18  
Month to date cooling degree days 240 187  
Year to date cooling degree days 1696 1577  
Since 1 June cooling degree days 1308 1198  
Growing Degree Days 38 (Base 50)    
Moisture  
Dew Point 71 °F    
Average Humidity 58    
Maximum Humidity 87    
Minimum Humidity 29    
Precipitation  
Precipitation 0.94 in 0.09 in 5.81 in (1912)
Month to date precipitation 0.94 0.88  
Year to date precipitation 20.21 28.51  
Snow  
Snow 0.00 in - - ()
Month to date snowfall 0.0  
Since 1 June snowfall 0.0  
Since 1 July snowfall 0.0  
Snow Depth 0.00 in    
Sea Level Pressure  
Sea Level Pressure 29.98 in    
Wind  
Wind Speed 6 mph (SSE)    
Max Wind Speed 31 mph    
Max Gust Speed 44 mph    
Visibility 8 miles    
Events Rain , Thunderstorm    
T = Trace of Precipitation, MM = Missing Value Source: NWS Daily Summary

Daily Weather History Graph

Daily Weather History Graph

Search for Another Location

Airport:

Trip Planner

Search our weather history database for the weather conditions in past years. The results will help you decide how hot, cold, wet, or windy it might be!

Date:

Astronomy

Aug. 10, 2013 Rise Set
Actual Time 6:39 AM CDT 8:08 PM CDT
Civil Twilight 6:13 AM CDT 8:34 PM CDT
Nautical Twilight 5:42 AM CDT 9:05 PM CDT
Astronomical Twilight 5:09 AM CDT 9:38 PM CDT
Moon 10:10 AM CDT (8/10) 10:08 PM CDT (8/10)
Length of Visible Light 14h 20m
Length of Day
13h 28m
Waxing Crescent, 14% of the Moon is Illuminated
Aug 10
Waxing Crescent
Aug 14
First Quarter
Aug 20
Full
Aug 28
Last Quarter
Sep 5
New

Hourly Weather History & Observations

Time (CDT) Temp. Heat Index Dew Point Humidity Pressure Visibility Wind Dir Wind Speed Gust Speed Precip Events Conditions
12:53 AM 84.9 °F 90.1 °F 71.1 °F 63% 29.94 in 10.0 mi SE 6.9 mph - N/A   Clear
1:53 AM 84.9 °F 90.1 °F 71.1 °F 63% 29.95 in 10.0 mi South 9.2 mph - N/A   Clear
2:53 AM 82.9 °F 87.5 °F 71.1 °F 67% 29.96 in 10.0 mi South 5.8 mph - N/A   Clear
3:53 AM 80.1 °F 83.8 °F 72.0 °F 76% 29.96 in 10.0 mi SSE 5.8 mph - N/A   Clear
4:53 AM 80.1 °F 84.2 °F 73.0 °F 79% 29.96 in 10.0 mi South 3.5 mph - N/A   Clear
5:53 AM 79.0 °F - 72.0 °F 79% 29.97 in 10.0 mi Calm Calm - N/A   Clear
6:53 AM 77.0 °F - 72.0 °F 84% 29.99 in 9.0 mi SSE 3.5 mph - N/A   Clear
7:53 AM 81.0 °F 86.2 °F 73.9 °F 79% 30.00 in 10.0 mi SSE 3.5 mph - N/A   Clear
8:53 AM 86.0 °F 93.0 °F 73.0 °F 65% 30.01 in 10.0 mi West 5.8 mph - N/A   Clear
9:53 AM 91.0 °F 98.2 °F 72.0 °F 53% 30.01 in 10.0 mi WSW 6.9 mph - N/A   Clear
10:53 AM 93.9 °F 102.1 °F 72.0 °F 49% 30.02 in 10.0 mi West 4.6 mph - N/A   Clear
11:53 AM 96.1 °F 103.5 °F 71.1 °F 44% 30.01 in 10.0 mi Variable 5.8 mph - N/A   Clear
12:53 PM 97.0 °F 104.8 °F 71.1 °F 43% 30.00 in 10.0 mi Calm Calm - N/A   Scattered Clouds
1:53 PM 99.0 °F 105.5 °F 69.1 °F 38% 29.97 in 10.0 mi Variable 3.5 mph - N/A   Clear
2:53 PM 100.9 °F 104.0 °F 64.0 °F 30% 29.94 in 10.0 mi Calm Calm - N/A   Scattered Clouds
3:53 PM 102.0 °F 105.9 °F 64.9 °F 30% 29.91 in 10.0 mi SW 6.9 mph - N/A   Scattered Clouds
4:53 PM 100.0 °F 103.6 °F 64.9 °F 32% 29.90 in 10.0 mi WSW 8.1 mph - N/A Thunderstorm Thunderstorm
5:16 PM 78.8 °F - 71.6 °F 78% 29.97 in 1.8 mi North 23.0 mph 34.5 mph 0.09 in Rain , Thunderstorm Heavy Thunderstorms and Rain
5:26 PM 77.0 °F - 71.6 °F 83% 29.99 in 0.5 mi NNE 23.0 mph 34.5 mph 0.40 in Rain , Thunderstorm Heavy Thunderstorms and Rain
5:33 PM 78.8 °F - 66.2 °F 65% 29.96 in 0.2 mi North 15.0 mph 43.7 mph 0.68 in Rain , Thunderstorm Heavy Thunderstorms and Rain
5:43 PM 75.2 °F - 71.6 °F 89% 29.98 in 0.8 mi NE 13.8 mph 31.1 mph 0.83 in Rain , Thunderstorm Heavy Thunderstorms and Rain
5:53 PM 77.0 °F - 71.1 °F 82% 29.96 in 1.5 mi East 19.6 mph - 0.90 in Rain , Thunderstorm Heavy Thunderstorms and Rain
5:58 PM 75.2 °F - 71.6 °F 89% 29.98 in 0.8 mi ESE 17.3 mph - 0.04 in Rain , Thunderstorm Heavy Thunderstorms and Rain
6:08 PM 77.0 °F - 71.6 °F 83% 29.97 in 2.5 mi ESE 18.4 mph 25.3 mph 0.04 in Rain , Thunderstorm Thunderstorms and Rain
6:15 PM 77.0 °F - 71.6 °F 83% 29.98 in 6.0 mi ESE 17.3 mph - 0.04 in Rain , Thunderstorm Light Thunderstorms and Rain
6:53 PM 75.9 °F - 72.0 °F 87% 29.97 in 10.0 mi SE 12.7 mph - 0.04 in Thunderstorm Mostly Cloudy
7:31 PM 77.0 °F - 69.8 °F 78% 30.01 in 1.0 mi South 19.6 mph - 0.00 in Thunderstorm Unknown
7:36 PM 75.2 °F - 71.6 °F 89% 30.01 in 5.0 mi SSE 15.0 mph - 0.00 in Thunderstorm Haze
7:53 PM 77.0 °F - 71.1 °F 82% 29.97 in 10.0 mi SSE 13.8 mph - 0.00 in Thunderstorm Clear
8:02 PM 77.0 °F - 69.8 °F 78% 29.99 in 10.0 mi SSE 13.8 mph - N/A   Clear
8:53 PM 78.1 °F - 70.0 °F 76% 29.96 in 10.0 mi SSW 4.6 mph - N/A   Clear
9:53 PM 77.0 °F - 71.1 °F 82% 29.99 in 10.0 mi ESE 6.9 mph - N/A   Clear
10:53 PM 78.1 °F - 71.1 °F 79% 30.02 in 10.0 mi SSW 3.5 mph - N/A   Clear
11:53 PM 75.9 °F - 72.0 °F 87% 30.01 in 10.0 mi Calm Calm - N/A   Clear